Weather History for Grove, OK

Change the Weather History Date:

Friday, April 26, 2013

  Actual Average (KSLG) Record (KSLG)
Temperature  
Mean Temperature 54 °F -  
Max Temperature 59 °F 68 °F 82 °F (2012)
Min Temperature 50 °F 48 °F 39 °F (2005)
Degree Days  
Heating Degree Days 10    
Growing Degree Days 4 (Base 50)    
Moisture  
Dew Point 48 °F    
Average Humidity 84    
Maximum Humidity 100    
Minimum Humidity 42    
Precipitation  
Precipitation 0.00 in - - ()
Sea Level Pressure  
Sea Level Pressure 30.19 in    
Wind  
Wind Speed 8 mph (ESE)    
Max Wind Speed 18 mph    
Max Gust Speed 28 mph    
Visibility 8 miles    
Events Rain , Thunderstorm    
Averages and records for this station are not official NWS values.
T = Trace of Precipitation, MM = Missing Value Source: NWS Daily Summary

Daily Weather History Graph

Daily Weather History Graph

Search for Another Location

Airport:

Trip Planner

Search our weather history database for the weather conditions in past years. The results will help you decide how hot, cold, wet, or windy it might be!

Date:

Astronomy

Apr. 26, 2013 Rise Set
Actual Time 6:30 AM CDT 8:03 PM CDT
Civil Twilight 6:03 AM CDT 8:30 PM CDT
Nautical Twilight 5:30 AM CDT 9:03 PM CDT
Astronomical Twilight 4:55 AM CDT 9:38 PM CDT
Moon 9:24 PM CDT (4/26) 7:00 AM CDT (4/26)
Length of Visible Light 14h 27m
Length of Day
13h 32m
Full, 99% of the Moon is Illuminated
Apr 26
Full
May 2
Last Quarter
May 9
New
May 17
First Quarter
May 24
Full

Hourly Weather History & Observations

Time (CDT) Temp. Dew Point Humidity Pressure Visibility Wind Dir Wind Speed Gust Speed Precip Events Conditions
12:15 AM 59.0 °F 37.4 °F 45% 30.21 in 10.0 mi SSE 5.8 mph - N/A   Clear
12:35 AM 57.2 °F 37.4 °F 48% 30.22 in 10.0 mi SSE 6.9 mph - N/A   Scattered Clouds
12:55 AM 59.0 °F 35.6 °F 42% 30.22 in 10.0 mi SSE 6.9 mph - N/A   Mostly Cloudy
1:15 AM 59.0 °F 35.6 °F 42% 30.21 in 10.0 mi SSE 9.2 mph - N/A   Overcast
1:35 AM 59.0 °F 37.4 °F 45% 30.21 in 10.0 mi SSE 8.1 mph - N/A   Mostly Cloudy
1:55 AM 59.0 °F 37.4 °F 45% 30.20 in 10.0 mi SSE 9.2 mph - N/A   Mostly Cloudy
2:15 AM 59.0 °F 37.4 °F 45% 30.20 in 10.0 mi SSE 9.2 mph - N/A   Overcast
2:35 AM 59.0 °F 37.4 °F 45% 30.19 in 10.0 mi SSE 6.9 mph - N/A   Mostly Cloudy
2:55 AM 59.0 °F 37.4 °F 45% 30.18 in 10.0 mi SSE 6.9 mph - N/A   Scattered Clouds
3:15 AM 59.0 °F 41.0 °F 51% 30.19 in 10.0 mi SSE 8.1 mph - N/A Rain , Thunderstorm Light Thunderstorms and Rain
3:35 AM 55.4 °F 42.8 °F 63% 30.18 in 10.0 mi SSE 6.9 mph - N/A Rain , Thunderstorm Light Thunderstorms and Rain
3:55 AM 55.4 °F 44.6 °F 67% 30.17 in 10.0 mi SE 8.1 mph 17.3 mph N/A Rain , Thunderstorm Light Thunderstorms and Rain
4:15 AM 55.4 °F 44.6 °F 67% 30.17 in 10.0 mi East 5.8 mph - N/A Thunderstorm Thunderstorm
4:35 AM 55.4 °F 46.4 °F 72% 30.17 in 10.0 mi East 4.6 mph - N/A Thunderstorm Overcast
4:55 AM 53.6 °F 46.4 °F 77% 30.22 in 7.0 mi Calm Calm - N/A Rain , Thunderstorm Rain
5:15 AM 51.8 °F 48.2 °F 88% 30.22 in 10.0 mi NE 4.6 mph - N/A Rain , Thunderstorm Light Thunderstorms and Rain
5:35 AM 53.6 °F 48.2 °F 82% 30.20 in 10.0 mi ENE 3.5 mph - N/A Thunderstorm Thunderstorm
5:55 AM 53.6 °F 48.2 °F 82% 30.19 in 10.0 mi East 6.9 mph - N/A   Overcast
6:15 AM 53.6 °F 46.4 °F 77% 30.17 in 10.0 mi ESE 9.2 mph - N/A Thunderstorm Thunderstorm
6:55 AM 53.6 °F 46.4 °F 77% 30.19 in 10.0 mi East 11.5 mph 16.1 mph N/A Thunderstorm Overcast
7:15 AM 53.6 °F 46.4 °F 77% 30.20 in 10.0 mi East 6.9 mph - N/A Thunderstorm Overcast
7:35 AM 53.6 °F 46.4 °F 77% 30.24 in 10.0 mi NNE 8.1 mph - N/A Thunderstorm Overcast
7:55 AM 51.8 °F 46.4 °F 82% 30.26 in 5.0 mi NE 8.1 mph - N/A Rain , Thunderstorm Heavy Thunderstorms and Rain
8:15 AM 51.8 °F 46.4 °F 82% 30.25 in 7.0 mi ENE 11.5 mph - N/A Rain , Thunderstorm Light Thunderstorms and Rain
8:35 AM 50.0 °F 46.4 °F 87% 30.23 in 7.0 mi East 12.7 mph 18.4 mph N/A Rain , Thunderstorm Thunderstorms and Rain
8:55 AM 51.8 °F 46.4 °F 82% 30.24 in 10.0 mi East 10.4 mph 20.7 mph N/A Rain , Thunderstorm Light Thunderstorms and Rain
9:15 AM 50.0 °F 46.4 °F 87% 30.25 in 1.5 mi East 10.4 mph 17.3 mph N/A Rain , Thunderstorm Heavy Thunderstorms and Rain
9:35 AM 51.8 °F 48.2 °F 88% 30.27 in 10.0 mi East 8.1 mph - N/A Rain , Thunderstorm Light Thunderstorms and Rain
9:55 AM 51.8 °F 48.2 °F 88% 30.26 in 7.0 mi East 9.2 mph 17.3 mph N/A Rain , Thunderstorm Light Thunderstorms and Rain
10:15 AM 51.8 °F 51.8 °F 100% 30.26 in 10.0 mi East 8.1 mph - N/A Rain , Thunderstorm Light Thunderstorms and Rain
10:35 AM 51.8 °F 48.2 °F 88% 30.32 in 3.0 mi East 8.1 mph - N/A Rain , Thunderstorm Light Thunderstorms and Rain
10:55 AM 51.8 °F 51.8 °F 100% 30.29 in 7.0 mi ESE 11.5 mph 17.3 mph N/A Rain , Thunderstorm Light Thunderstorms and Rain
11:15 AM 51.8 °F 51.8 °F 100% 30.29 in 10.0 mi East 13.8 mph - N/A Rain , Thunderstorm Light Thunderstorms and Rain
11:35 AM 51.8 °F 51.8 °F 100% 30.24 in 10.0 mi East 13.8 mph 21.9 mph N/A   Overcast
11:55 AM 51.8 °F 50.0 °F 94% 30.27 in 10.0 mi East 12.7 mph 19.6 mph N/A Thunderstorm Overcast
12:15 PM 51.8 °F 51.8 °F 100% 30.26 in 7.0 mi East 12.7 mph 18.4 mph N/A Rain , Thunderstorm Light Thunderstorms and Rain
12:35 PM 53.6 °F 50.0 °F 88% 30.25 in 10.0 mi ESE 11.5 mph 18.4 mph N/A Rain Light Rain
12:55 PM 53.6 °F 50.0 °F 88% 30.23 in 10.0 mi ESE 16.1 mph 20.7 mph N/A   Overcast
1:15 PM 53.6 °F 48.2 °F 82% 30.22 in 10.0 mi ESE 13.8 mph 24.2 mph N/A   Overcast
1:35 PM 53.6 °F 48.2 °F 82% 30.20 in 10.0 mi ESE 17.3 mph 24.2 mph N/A Thunderstorm Overcast
1:55 PM 53.6 °F 48.2 °F 82% 30.18 in 10.0 mi ESE 17.3 mph 27.6 mph N/A   Overcast
2:15 PM 53.6 °F 48.2 °F 82% 30.17 in 10.0 mi ESE 13.8 mph 21.9 mph N/A Thunderstorm Overcast
2:35 PM 53.6 °F 48.2 °F 82% 30.17 in 10.0 mi ESE 13.8 mph 20.7 mph N/A Thunderstorm Overcast
2:55 PM 53.6 °F 48.2 °F 82% 30.18 in 10.0 mi SE 18.4 mph 23.0 mph N/A Rain Light Rain
3:15 PM 53.6 °F 48.2 °F 82% 30.17 in 7.0 mi ESE 12.7 mph - N/A   Overcast
3:35 PM 53.6 °F 48.2 °F 82% 30.16 in 10.0 mi ESE 16.1 mph 21.9 mph N/A   Overcast
3:55 PM 53.6 °F 50.0 °F 88% 30.16 in 5.0 mi ESE 11.5 mph 20.7 mph N/A Rain Light Rain
4:15 PM 51.8 °F 51.8 °F 100% 30.15 in 4.0 mi ESE 8.1 mph 11.5 mph N/A Rain Light Rain
4:35 PM 51.8 °F 51.8 °F 100% 30.14 in 10.0 mi ESE 10.4 mph - N/A   Overcast
4:55 PM 53.6 °F 50.0 °F 88% 30.13 in 10.0 mi ESE 9.2 mph - N/A   Overcast
5:15 PM 53.6 °F 53.6 °F 100% 30.13 in 5.0 mi ESE 9.2 mph - N/A   Light Drizzle
5:35 PM 53.6 °F 53.6 °F 100% 30.12 in 1.8 mi ESE 9.2 mph 16.1 mph N/A   Light Drizzle
5:55 PM 53.6 °F 53.6 °F 100% 30.12 in 2.5 mi ESE 8.1 mph - N/A Thunderstorm Unknown
6:15 PM 53.6 °F 53.6 °F 100% 30.11 in 4.0 mi ESE 8.1 mph - N/A   Overcast
6:35 PM 53.6 °F 53.6 °F 100% 30.11 in 3.0 mi East 4.6 mph - N/A   Light Drizzle
6:55 PM 53.6 °F 53.6 °F 100% 30.11 in 5.0 mi ESE 8.1 mph - N/A   Overcast
7:15 PM 53.6 °F 53.6 °F 100% 30.10 in 10.0 mi ESE 8.1 mph - N/A   Overcast
7:35 PM 53.6 °F 53.6 °F 100% 30.11 in 4.0 mi ESE 5.8 mph - N/A Rain Rain
7:55 PM 53.6 °F 53.6 °F 100% 30.12 in 10.0 mi Calm Calm - N/A   Overcast
8:15 PM 53.6 °F 53.6 °F 100% 30.13 in 5.0 mi Calm Calm - N/A Rain Rain
8:35 PM 51.8 °F 51.8 °F 100% 30.13 in 5.0 mi Calm Calm - N/A Rain Rain
8:55 PM 51.8 °F 51.8 °F 100% 30.13 in 7.0 mi Calm Calm - N/A   Light Drizzle
9:15 PM 51.8 °F 51.8 °F 100% 30.13 in 5.0 mi East 4.6 mph - N/A Rain Rain
9:35 PM 51.8 °F 51.8 °F 100% 30.14 in 7.0 mi East 4.6 mph - N/A   Overcast
9:55 PM 51.8 °F 51.8 °F 100% 30.15 in 10.0 mi East 3.5 mph - N/A   Overcast
10:15 PM 51.8 °F 51.8 °F 100% 30.15 in 10.0 mi Calm Calm - N/A   Overcast
10:35 PM 53.6 °F 53.6 °F 100% 30.15 in 10.0 mi Calm Calm - N/A   Overcast
10:55 PM 53.6 °F 53.6 °F 100% 30.14 in 10.0 mi East 5.8 mph - N/A   Overcast
11:15 PM 53.6 °F 53.6 °F 100% 30.15 in 10.0 mi Calm Calm - N/A   Overcast
11:35 PM 53.6 °F 53.6 °F 100% 30.13 in 10.0 mi East 4.6 mph - N/A   Overcast
11:55 PM 53.6 °F 53.6 °F 100% 30.13 in 10.0 mi East 3.5 mph - N/A Thunderstorm Overcast